| time (UTC) | temp F | wind direction | speed knots | gust knots | rain 1hr in | rain 24hr in | rain mn in | humidity % | barometer mb |
| 20260507183004 | 88 | 293 | 0.9 | 4.3 | 0.00 | 0.00 | 0.00 | 10 | 1012.8 |
| 20260507182504 | 87 | 165 | 0.0 | 4.3 | 0.00 | 0.00 | 0.00 | 10 | 1012.7 |
| 20260507182007 | 87 | 127 | 1.7 | 4.3 | 0.00 | 0.00 | 0.00 | 11 | 1012.9 |
| 20260507181504 | 86 | 174 | 0.0 | 3.5 | 0.00 | 0.00 | 0.00 | 11 | 1013.0 |
| 20260507181007 | 86 | 141 | 0.9 | 4.3 | 0.00 | 0.00 | 0.00 | 11 | 1013.0 |
| 20260507180511 | 85 | 304 | 0.0 | 4.3 | 0.00 | 0.00 | 0.00 | 12 | 1013.1 |
| 20260507180021 | 86 | 318 | 0.0 | 4.3 | 0.00 | 0.00 | 0.00 | 12 | 1013.1 |
| 20260507175508 | 86 | 283 | 0.0 | 4.3 | 0.00 | 0.00 | 0.00 | 13 | 1013.1 |
| 20260507175005 | 86 | 296 | 0.0 | 2.6 | 0.00 | 0.00 | 0.00 | 12 | 1013.1 |
| 20260507174537 | 85 | 279 | 0.0 | 5.2 | 0.00 | 0.00 | 0.00 | 13 | 1013.1 |
| 20260507174004 | 85 | 281 | 0.9 | 5.2 | 0.00 | 0.00 | 0.00 | 14 | 1013.2 |
| 20260507173507 | 85 | 146 | 1.7 | 5.2 | 0.00 | 0.00 | 0.00 | 13 | 1013.3 |
| 20260507173008 | 84 | 150 | 0.9 | 3.5 | 0.00 | 0.00 | 0.00 | 15 | 1013.4 |
| 20260507172506 | 83 | 283 | 0.0 | 3.5 | 0.00 | 0.00 | 0.00 | 15 | 1013.4 |
| 20260507172003 | 83 | 290 | 0.0 | 2.6 | 0.00 | 0.00 | 0.00 | 16 | 1013.5 |
| 20260507171517 | 83 | 282 | 0.0 | 2.6 | 0.00 | 0.00 | 0.00 | 17 | 1013.6 |
| 20260507171006 | 83 | 301 | 0.0 | 3.5 | 0.00 | 0.00 | 0.00 | 16 | 1013.7 |
| 20260507170504 | 82 | 359 | 0.0 | 3.5 | 0.00 | 0.00 | 0.00 | 16 | 1013.7 |
| 20260507170038 | 82 | 326 | 0.0 | 0.9 | 0.00 | 0.00 | 0.00 | 17 | 1013.8 |
| 20260507165510 | 82 | 313 | 0.0 | 2.6 | 0.00 | 0.00 | 0.00 | 17 | 1013.8 |
| 20260507165004 | 81 | 322 | 0.0 | 2.6 | 0.00 | 0.00 | 0.00 | 16 | 1013.8 |
| 20260507164530 | 81 | 269 | 0.0 | 0.9 | 0.00 | 0.00 | 0.00 | 19 | 1013.9 |
| 20260507164007 | 80 | 291 | 0.0 | 0.9 | 0.00 | 0.00 | 0.00 | 20 | 1013.9 |
| 20260507163506 | 80 | 289 | 0.0 | 0.9 | 0.00 | 0.00 | 0.00 | 22 | 1013.9 |
| 20260507163011 | 79 | 293 | 0.0 | 4.3 | 0.00 | 0.00 | 0.00 | 22 | 1013.9 |
| 20260507162503 | 80 | 296 | 0.0 | 4.3 | 0.00 | 0.00 | 0.00 | 22 | 1014.0 |
| 20260507162006 | 79 | 264 | 0.0 | 3.5 | 0.00 | 0.00 | 0.00 | 23 | 1014.0 |
| 20260507161519 | 79 | 293 | 0.0 | 3.5 | 0.00 | 0.00 | 0.00 | 23 | 1014.0 |
| 20260507161006 | 78 | 269 | 0.0 | 3.5 | 0.00 | 0.00 | 0.00 | 24 | 1014.0 |
| 20260507160506 | 78 | 283 | 0.0 | 3.5 | 0.00 | 0.00 | 0.00 | 24 | 1014.1 |
| 20260507160024 | 77 | 252 | 0.0 | 4.3 | 0.00 | 0.00 | 0.00 | 23 | 1014.2 |
| 20260507155506 | 77 | 243 | 0.0 | 4.3 | 0.00 | 0.00 | 0.00 | 24 | 1014.1 |
| 20260507155007 | 76 | 288 | 0.0 | 0.9 | 0.00 | 0.00 | 0.00 | 24 | 1014.2 |
| 20260507154526 | 76 | 262 | 0.0 | 4.3 | 0.00 | 0.00 | 0.00 | 24 | 1014.2 |
| 20260507154004 | 75 | 167 | 0.9 | 4.3 | 0.00 | 0.00 | 0.00 | 25 | 1014.2 |
| 20260507153504 | 75 | 167 | 0.9 | 2.6 | 0.00 | 0.00 | 0.00 | 25 | 1014.2 |
| 20260507153018 | 75 | 248 | 0.0 | 2.6 | 0.00 | 0.00 | 0.00 | 25 | 1014.2 |
| 20260507152506 | 74 | 195 | 0.9 | 3.5 | 0.00 | 0.00 | 0.00 | 26 | 1014.2 |
| 20260507152005 | 74 | 135 | 0.0 | 3.5 | 0.00 | 0.00 | 0.00 | 26 | 1014.2 |
| 20260507151519 | 73 | 146 | 0.0 | 3.5 | 0.00 | 0.00 | 0.00 | 26 | 1014.3 |
| 20260507151010 | 73 | 176 | 0.0 | 3.5 | 0.00 | 0.00 | 0.00 | 27 | 1014.3 |
| 20260507150506 | 72 | 179 | 0.0 | 4.3 | 0.00 | 0.00 | 0.00 | 27 | 1014.3 |
| 20260507150031 | 72 | 205 | 0.0 | 4.3 | 0.00 | 0.00 | 0.00 | 28 | 1014.3 |
| 20260507145507 | 71 | 178 | 0.0 | 3.5 | 0.00 | 0.00 | 0.00 | 29 | 1014.3 |
| 20260507145005 | 70 | 174 | 0.9 | 3.5 | 0.00 | 0.00 | 0.00 | 29 | 1014.3 |
| 20260507144527 | 69 | 152 | 0.0 | 3.5 | 0.00 | 0.00 | 0.00 | 29 | 1014.3 |
| 20260507144003 | 69 | 205 | 0.0 | 3.5 | 0.00 | 0.00 | 0.00 | 30 | 1014.2 |
| 20260507143506 | 68 | 165 | 0.9 | 4.3 | 0.00 | 0.00 | 0.00 | 30 | 1014.3 |
| 20260507143016 | 68 | 231 | 0.9 | 4.3 | 0.00 | 0.00 | 0.00 | 30 | 1014.2 |
| 20260507142509 | 67 | 199 | 0.9 | 3.5 | 0.00 | 0.00 | 0.00 | 31 | 1014.3 |
| 20260507142007 | 67 | 245 | 0.0 | 2.6 | 0.00 | 0.00 | 0.00 | 32 | 1014.2 |
| 20260507141521 | 67 | 120 | 0.0 | 2.6 | 0.00 | 0.00 | 0.00 | 32 | 1014.3 |
| 20260507141007 | 66 | 205 | 0.0 | 0.9 | 0.00 | 0.00 | 0.00 | 33 | 1014.4 |
| 20260507140511 | 66 | 160 | 0.0 | 2.6 | 0.00 | 0.00 | 0.00 | 35 | 1014.3 |
| 20260507140025 | 65 | 143 | 0.9 | 2.6 | 0.00 | 0.00 | 0.00 | 35 | 1014.3 |
| 20260507135510 | 64 | 141 | 0.0 | 3.5 | 0.00 | 0.00 | 0.00 | 37 | 1014.2 |
| 20260507135017 | 64 | 153 | 0.9 | 3.5 | 0.00 | 0.00 | 0.00 | 37 | 1014.2 |
| 20260507134528 | 64 | 146 | 0.0 | 0.0 | 0.00 | 0.00 | 0.00 | 39 | 1014.1 |
| 20260507134010 | 63 | 146 | 0.0 | 0.0 | 0.00 | 0.00 | 0.00 | 38 | 1014.0 |
| 20260507133505 | 62 | 146 | 0.0 | 0.0 | 0.00 | 0.00 | 0.00 | 38 | 1013.8 |
| 20260507133019 | 62 | 146 | 0.0 | 0.0 | 0.00 | 0.00 | 0.00 | 39 | 1013.8 |
| 20260507132509 | 61 | 146 | 0.0 | 0.0 | 0.00 | 0.00 | 0.00 | 40 | 1013.8 |
| 20260507132010 | 61 | 146 | 0.0 | 0.9 | 0.00 | 0.00 | 0.00 | 41 | 1013.8 |
| 20260507131528 | 61 | 146 | 0.0 | 0.9 | 0.00 | 0.00 | 0.00 | 41 | 1013.7 |
| 20260507131009 | 61 | 145 | 0.0 | 0.9 | 0.00 | 0.00 | 0.00 | 43 | 1013.5 |
| 20260507130511 | 61 | 146 | 0.0 | 0.9 | 0.00 | 0.00 | 0.00 | 43 | 1013.6 |
| 20260507130027 | 60 | 210 | 0.0 | 0.0 | 0.00 | 0.00 | 0.00 | 42 | 1013.6 |
| 20260507125511 | 60 | 210 | 0.0 | 0.0 | 0.00 | 0.00 | 0.00 | 42 | 1013.5 |
| 20260507125011 | 60 | 211 | 0.0 | 0.0 | 0.00 | 0.00 | 0.00 | 41 | 1013.5 |
| 20260507124527 | 60 | 211 | 0.0 | 0.0 | 0.00 | 0.00 | 0.00 | 40 | 1013.5 |
| 20260507124007 | 60 | 211 | 0.0 | 0.0 | 0.00 | 0.00 | 0.00 | 40 | 1013.6 |
| 20260507123509 | 60 | 212 | 0.0 | 0.0 | 0.00 | 0.00 | 0.00 | 40 | 1013.6 |
| 20260507123020 | 61 | 211 | 0.0 | 2.6 | 0.00 | 0.00 | 0.00 | 40 | 1013.5 |
| 20260507122508 | 61 | 210 | 0.0 | 2.6 | 0.00 | 0.00 | 0.00 | 40 | 1013.5 |
| 20260507122010 | 61 | 168 | 0.0 | 0.9 | 0.00 | 0.00 | 0.00 | 42 | 1013.6 |
| 20260507121525 | 61 | 225 | 0.0 | 0.0 | 0.00 | 0.00 | 0.00 | 41 | 1013.4 |
| 20260507121010 | 62 | 225 | 0.0 | 0.0 | 0.00 | 0.00 | 0.00 | 38 | 1013.3 |
| 20260507120510 | 63 | 225 | 0.0 | 0.0 | 0.00 | 0.00 | 0.00 | 38 | 1013.3 |
| 20260507120036 | 63 | 225 | 0.0 | 0.0 | 0.00 | 0.00 | 0.00 | 38 | 1013.3 |
| 20260507115507 | 64 | 225 | 0.0 | 0.0 | 0.00 | 0.00 | 0.00 | 36 | 1013.3 |
| 20260507115010 | 65 | 226 | 0.0 | 0.0 | 0.00 | 0.00 | 0.00 | 35 | 1013.4 |
| 20260507114526 | 65 | 224 | 0.0 | 0.9 | 0.00 | 0.00 | 0.00 | 34 | 1013.4 |
| 20260507114007 | 65 | 347 | 0.0 | 0.9 | 0.00 | 0.00 | 0.00 | 34 | 1013.3 |
| 20260507113507 | 65 | 347 | 0.0 | 0.0 | 0.00 | 0.00 | 0.00 | 33 | 1013.3 |
| 20260507113023 | 65 | 347 | 0.0 | 0.0 | 0.00 | 0.00 | 0.00 | 33 | 1013.4 |
| 20260507112510 | 66 | 347 | 0.0 | 0.9 | 0.00 | 0.00 | 0.00 | 32 | 1013.3 |
| 20260507112014 | 66 | 347 | 0.0 | 1.7 | 0.00 | 0.00 | 0.00 | 31 | 1013.3 |
| 20260507111525 | 66 | 347 | 0.0 | 1.7 | 0.00 | 0.00 | 0.00 | 30 | 1013.2 |
| 20260507111005 | 66 | 347 | 0.0 | 1.7 | 0.00 | 0.00 | 0.00 | 31 | 1013.2 |
| 20260507110504 | 66 | 347 | 0.0 | 0.9 | 0.00 | 0.00 | 0.00 | 31 | 1013.2 |
| 20260507110006 | 66 | 347 | 0.0 | 0.0 | 0.00 | 0.00 | 0.00 | 31 | 1013.3 |
| 20260507105503 | 66 | 347 | 0.0 | 0.0 | 0.00 | 0.00 | 0.00 | 30 | 1013.3 |
| 20260507105007 | 67 | 347 | 0.0 | 0.0 | 0.00 | 0.00 | 0.00 | 30 | 1013.4 |
| 20260507104510 | 67 | 347 | 0.0 | 0.9 | 0.00 | 0.00 | 0.00 | 30 | 1013.4 |
| 20260507104009 | 67 | 347 | 0.0 | 1.7 | 0.00 | 0.00 | 0.00 | 30 | 1013.4 |
| 20260507103510 | 67 | 347 | 0.0 | 2.6 | 0.00 | 0.00 | 0.00 | 30 | 1013.4 |
| 20260507103003 | 66 | 347 | 0.0 | 2.6 | 0.00 | 0.00 | 0.00 | 31 | 1013.4 |
| 20260507102510 | 65 | 349 | 0.0 | 0.9 | 0.00 | 0.00 | 0.00 | 32 | 1013.4 |
| 20260507102003 | 64 | 297 | 0.0 | 0.0 | 0.00 | 0.00 | 0.00 | 33 | 1013.4 |
| 20260507101507 | 64 | 297 | 0.0 | 0.0 | 0.00 | 0.00 | 0.00 | 34 | 1013.5 |
| 20260507101003 | 64 | 297 | 0.0 | 0.0 | 0.00 | 0.00 | 0.00 | 34 | 1013.6 |
| 20260507100504 | 64 | 297 | 0.0 | 0.0 | 0.00 | 0.00 | 0.00 | 34 | 1013.7 |
| 20260507100007 | 63 | 297 | 0.0 | 0.0 | 0.00 | 0.00 | 0.00 | 35 | 1013.7 |
| 20260507095510 | 63 | 297 | 0.0 | 0.0 | 0.00 | 0.00 | 0.00 | 35 | 1013.8 |
| 20260507095004 | 63 | 296 | 0.0 | 0.0 | 0.00 | 0.00 | 0.00 | 35 | 1013.9 |
| 20260507094505 | 64 | 297 | 0.0 | 0.0 | 0.00 | 0.00 | 0.00 | 34 | 1013.9 |
| 20260507094009 | 64 | 297 | 0.0 | 0.0 | 0.00 | 0.00 | 0.00 | 34 | 1014.0 |
| 20260507093504 | 64 | 296 | 0.0 | 0.0 | 0.00 | 0.00 | 0.00 | 34 | 1014.0 |
| 20260507093004 | 65 | 297 | 0.0 | 0.0 | 0.00 | 0.00 | 0.00 | 33 | 1014.1 |
| 20260507092508 | 65 | 297 | 0.0 | 0.0 | 0.00 | 0.00 | 0.00 | 33 | 1014.1 |
| 20260507092003 | 64 | 296 | 0.0 | 0.0 | 0.00 | 0.00 | 0.00 | 34 | 1014.2 |
| 20260507091507 | 64 | 296 | 0.0 | 0.0 | 0.00 | 0.00 | 0.00 | 34 | 1014.2 |
| 20260507091004 | 64 | 297 | 0.0 | 0.0 | 0.00 | 0.00 | 0.00 | 34 | 1014.1 |
| 20260507090504 | 64 | 297 | 0.0 | 0.0 | 0.00 | 0.00 | 0.00 | 35 | 1014.2 |
| 20260507090020 | 65 | 297 | 0.0 | 0.0 | 0.00 | 0.00 | 0.00 | 34 | 1014.2 |
| 20260507085504 | 65 | 297 | 0.0 | 0.0 | 0.00 | 0.00 | 0.00 | 33 | 1014.2 |
| 20260507085006 | 65 | 297 | 0.0 | 0.0 | 0.00 | 0.00 | 0.00 | 33 | 1014.3 |
| 20260507084520 | 65 | 297 | 0.0 | 0.0 | 0.00 | 0.00 | 0.00 | 34 | 1014.3 |
| 20260507084006 | 65 | 297 | 0.0 | 0.0 | 0.00 | 0.00 | 0.00 | 34 | 1014.3 |
| 20260507083504 | 64 | 297 | 0.0 | 0.0 | 0.00 | 0.00 | 0.00 | 35 | 1014.4 |
| 20260507083026 | 64 | 297 | 0.0 | 0.0 | 0.00 | 0.00 | 0.00 | 36 | 1014.4 |
| 20260507082509 | 64 | 297 | 0.0 | 0.0 | 0.00 | 0.00 | 0.00 | 36 | 1014.5 |
| 20260507082006 | 64 | 297 | 0.0 | 0.0 | 0.00 | 0.00 | 0.00 | 37 | 1014.5 |
| 20260507081513 | 63 | 297 | 0.0 | 0.0 | 0.00 | 0.00 | 0.00 | 39 | 1014.6 |
| 20260507081006 | 63 | 295 | 0.0 | 0.0 | 0.00 | 0.00 | 0.00 | 41 | 1014.5 |
| 20260507080506 | 63 | 295 | 0.0 | 0.0 | 0.00 | 0.00 | 0.00 | 42 | 1014.6 |
| 20260507080015 | 63 | 296 | 0.0 | 0.0 | 0.00 | 0.00 | 0.00 | 42 | 1014.6 |
| 20260507075509 | 64 | 295 | 0.0 | 0.0 | 0.00 | 0.00 | 0.00 | 42 | 1014.6 |
| 20260507075007 | 64 | 296 | 0.0 | 0.0 | 0.00 | 0.00 | 0.00 | 42 | 1014.6 |
| 20260507074534 | 64 | 295 | 0.0 | 0.0 | 0.00 | 0.00 | 0.00 | 42 | 1014.6 |
| 20260507074008 | 64 | 296 | 0.0 | 0.0 | 0.00 | 0.00 | 0.00 | 43 | 1014.6 |
| 20260507073506 | 64 | 296 | 0.0 | 0.0 | 0.00 | 0.00 | 0.00 | 43 | 1014.5 |
| 20260507073027 | 64 | 295 | 0.0 | 0.0 | 0.00 | 0.00 | 0.00 | 43 | 1014.4 |
| 20260507072509 | 64 | 296 | 0.0 | 0.0 | 0.00 | 0.00 | 0.00 | 43 | 1014.5 |
| 20260507072004 | 65 | 295 | 0.0 | 0.0 | 0.00 | 0.00 | 0.00 | 41 | 1014.4 |
| 20260507071511 | 65 | 295 | 0.0 | 0.0 | 0.00 | 0.00 | 0.00 | 40 | 1014.4 |
| 20260507071006 | 65 | 296 | 0.0 | 0.0 | 0.00 | 0.00 | 0.00 | 40 | 1014.4 |
| 20260507070507 | 65 | 296 | 0.0 | 0.0 | 0.00 | 0.00 | 0.00 | 39 | 1014.4 |
| 20260507070020 | 65 | 297 | 0.0 | 0.0 | 0.00 | 0.00 | 0.00 | 39 | 1014.4 |
| 20260507065508 | 66 | 297 | 0.0 | 0.0 | 0.00 | 0.00 | 0.00 | 39 | 1014.5 |
| 20260507065006 | 66 | 295 | 0.0 | 0.0 | 0.00 | 0.00 | 0.00 | 39 | 1014.5 |
| 20260507064525 | 66 | 297 | 0.0 | 0.0 | 0.00 | 0.00 | 0.00 | 38 | 1014.5 |
| 20260507064006 | 66 | 295 | 0.0 | 0.0 | 0.00 | 0.00 | 0.00 | 38 | 1014.5 |
| 20260507063504 | 66 | 297 | 0.0 | 0.0 | 0.00 | 0.00 | 0.00 | 38 | 1014.5 |
| 20260507063027 | 66 | 296 | 0.0 | 0.0 | 0.00 | 0.00 | 0.00 | 38 | 1014.5 |
| 20260507062509 | 66 | 295 | 0.0 | 0.0 | 0.00 | 0.00 | 0.00 | 36 | 1014.5 |
| 20260507062006 | 66 | 296 | 0.0 | 0.0 | 0.00 | 0.00 | 0.00 | 36 | 1014.5 |
| 20260507061509 | 66 | 296 | 0.0 | 0.0 | 0.00 | 0.00 | 0.00 | 34 | 1014.5 |
| 20260507061004 | 66 | 297 | 0.0 | 0.0 | 0.00 | 0.00 | 0.00 | 34 | 1014.6 |
| 20260507060504 | 66 | 297 | 0.0 | 0.0 | 0.00 | 0.00 | 0.00 | 35 | 1014.6 |
| 20260507060015 | 66 | 295 | 0.0 | 0.0 | 0.00 | 0.00 | 0.00 | 33 | 1014.6 |
| 20260507055509 | 66 | 296 | 0.0 | 0.0 | 0.00 | 0.00 | 0.00 | 33 | 1014.6 |
| 20260507055007 | 66 | 296 | 0.0 | 0.0 | 0.00 | 0.00 | 0.00 | 35 | 1014.6 |
| 20260507054522 | 67 | 295 | 0.0 | 0.0 | 0.00 | 0.00 | 0.00 | 36 | 1014.6 |
| 20260507054008 | 67 | 297 | 0.0 | 0.0 | 0.00 | 0.00 | 0.00 | 32 | 1014.6 |
| 20260507053507 | 68 | 297 | 0.0 | 0.0 | 0.00 | 0.00 | 0.00 | 32 | 1014.5 |
| 20260507053027 | 68 | 297 | 0.0 | 0.0 | 0.00 | 0.00 | 0.00 | 30 | 1014.5 |
| 20260507052507 | 68 | 296 | 0.0 | 0.0 | 0.00 | 0.00 | 0.00 | 30 | 1014.5 |
| 20260507052011 | 68 | 295 | 0.0 | 0.0 | 0.00 | 0.00 | 0.00 | 29 | 1014.6 |
| 20260507051512 | 69 | 296 | 0.0 | 0.0 | 0.00 | 0.00 | 0.00 | 29 | 1014.6 |
| 20260507051013 | 69 | 297 | 0.0 | 0.0 | 0.00 | 0.00 | 0.00 | 31 | 1014.6 |
| 20260507050510 | 69 | 297 | 0.0 | 0.0 | 0.00 | 0.00 | 0.00 | 32 | 1014.5 |
| 20260507050025 | 70 | 295 | 0.0 | 0.0 | 0.00 | 0.00 | 0.00 | 32 | 1014.5 |
| 20260507045507 | 70 | 295 | 0.0 | 0.0 | 0.00 | 0.00 | 0.00 | 30 | 1014.3 |
| 20260507045009 | 70 | 297 | 0.0 | 0.0 | 0.00 | 0.00 | 0.00 | 29 | 1014.3 |
| 20260507044525 | 70 | 296 | 0.0 | 0.0 | 0.00 | 0.00 | 0.00 | 30 | 1014.3 |
| 20260507044011 | 70 | 295 | 0.0 | 0.0 | 0.00 | 0.00 | 0.00 | 30 | 1014.3 |
| 20260507043513 | 69 | 297 | 0.0 | 0.0 | 0.00 | 0.00 | 0.00 | 31 | 1014.3 |
| 20260507043024 | 70 | 297 | 0.0 | 0.0 | 0.00 | 0.00 | 0.00 | 33 | 1014.3 |
| 20260507042507 | 70 | 297 | 0.0 | 0.0 | 0.00 | 0.00 | 0.00 | 31 | 1014.2 |
| 20260507042014 | 71 | 297 | 0.0 | 0.0 | 0.00 | 0.00 | 0.00 | 28 | 1014.2 |
| 20260507041514 | 71 | 297 | 0.0 | 0.0 | 0.00 | 0.00 | 0.00 | 28 | 1014.2 |
| 20260507041007 | 71 | 297 | 0.0 | 0.0 | 0.00 | 0.00 | 0.00 | 28 | 1014.1 |
| 20260507040508 | 72 | 297 | 0.0 | 0.0 | 0.00 | 0.00 | 0.00 | 27 | 1014.0 |
| 20260507040021 | 72 | 297 | 0.0 | 0.0 | 0.00 | 0.00 | 0.00 | 27 | 1014.0 |
| 20260507035506 | 72 | 297 | 0.0 | 0.0 | 0.00 | 0.00 | 0.00 | 27 | 1013.9 |
| 20260507035008 | 73 | 297 | 0.0 | 0.0 | 0.00 | 0.00 | 0.00 | 25 | 1013.9 |
| 20260507034525 | 73 | 297 | 0.0 | 0.0 | 0.00 | 0.00 | 0.00 | 24 | 1013.8 |
| 20260507034009 | 74 | 297 | 0.0 | 0.0 | 0.00 | 0.00 | 0.00 | 24 | 1013.7 |
| 20260507033509 | 73 | 297 | 0.0 | 0.0 | 0.00 | 0.00 | 0.00 | 24 | 1013.7 |
| 20260507033028 | 73 | 297 | 0.0 | 0.0 | 0.00 | 0.00 | 0.00 | 25 | 1013.5 |
| 20260507032509 | 73 | 297 | 0.0 | 0.0 | 0.00 | 0.00 | 0.00 | 25 | 1013.5 |
| 20260507032018 | 74 | 297 | 0.0 | 0.0 | 0.00 | 0.00 | 0.00 | 25 | 1013.5 |
| 20260507031515 | 75 | 297 | 0.0 | 0.0 | 0.00 | 0.00 | 0.00 | 25 | 1013.4 |
| 20260507031008 | 76 | 297 | 0.0 | 0.0 | 0.00 | 0.00 | 0.00 | 23 | 1013.4 |
| 20260507030511 | 76 | 297 | 0.0 | 0.0 | 0.00 | 0.00 | 0.00 | 22 | 1013.3 |
| 20260507030023 | 76 | 297 | 0.0 | 0.0 | 0.00 | 0.00 | 0.00 | 22 | 1013.3 |
| 20260507025506 | 77 | 297 | 0.0 | 0.0 | 0.00 | 0.00 | 0.00 | 22 | 1013.1 |
| 20260507025011 | 77 | 297 | 0.0 | 0.9 | 0.00 | 0.00 | 0.00 | 21 | 1013.1 |
| 20260507024525 | 77 | 297 | 0.0 | 0.9 | 0.00 | 0.00 | 0.00 | 21 | 1013.1 |
| 20260507024007 | 77 | 297 | 0.0 | 0.0 | 0.00 | 0.00 | 0.00 | 21 | 1013.0 |
| 20260507023514 | 78 | 297 | 0.0 | 0.0 | 0.00 | 0.00 | 0.00 | 21 | 1013.0 |
| 20260507023029 | 78 | 297 | 0.0 | 0.0 | 0.00 | 0.00 | 0.00 | 20 | 1012.9 |
| 20260507022509 | 78 | 297 | 0.0 | 0.0 | 0.00 | 0.00 | 0.00 | 20 | 1012.9 |
| 20260507022014 | 79 | 297 | 0.0 | 0.0 | 0.00 | 0.00 | 0.00 | 20 | 1012.9 |
| 20260507021520 | 79 | 297 | 0.0 | 0.9 | 0.00 | 0.00 | 0.00 | 20 | 1012.8 |
| 20260507021009 | 79 | 297 | 0.0 | 0.9 | 0.00 | 0.00 | 0.00 | 19 | 1012.7 |
| 20260507020514 | 79 | 284 | 0.0 | 0.9 | 0.00 | 0.00 | 0.00 | 19 | 1012.7 |
| 20260507020005 | 80 | 295 | 0.0 | 1.7 | 0.00 | 0.00 | 0.00 | 19 | 1012.7 |
| 20260507015503 | 80 | 294 | 0.0 | 3.5 | 0.00 | 0.00 | 0.00 | 19 | 1012.7 |
| 20260507015003 | 81 | 276 | 0.9 | 3.5 | 0.00 | 0.00 | 0.00 | 18 | 1012.6 |
| 20260507014504 | 81 | 192 | 0.0 | 3.5 | 0.00 | 0.00 | 0.00 | 18 | 1012.6 |
| 20260507014004 | 82 | 276 | 0.9 | 2.6 | 0.00 | 0.00 | 0.00 | 18 | 1012.6 |
| 20260507013506 | 83 | 285 | 0.0 | 2.6 | 0.00 | 0.00 | 0.00 | 18 | 1012.6 |
| 20260507013005 | 83 | 282 | 0.0 | 4.3 | 0.00 | 0.00 | 0.00 | 18 | 1012.6 |
| 20260507012506 | 83 | 299 | 0.9 | 4.3 | 0.00 | 0.00 | 0.00 | 17 | 1012.6 |
| 20260507012008 | 83 | 305 | 0.0 | 2.6 | 0.00 | 0.00 | 0.00 | 17 | 1012.6 |
| 20260507011506 | 83 | 290 | 0.0 | 2.6 | 0.00 | 0.00 | 0.00 | 17 | 1012.6 |
| 20260507011011 | 83 | 290 | 0.0 | 2.6 | 0.00 | 0.00 | 0.00 | 18 | 1012.6 |
| 20260507010504 | 83 | 269 | 0.9 | 4.3 | 0.00 | 0.00 | 0.00 | 17 | 1012.6 |
| 20260507010006 | 83 | 311 | 1.7 | 4.3 | 0.00 | 0.00 | 0.00 | 17 | 1012.6 |
| 20260507005503 | 84 | 316 | 0.9 | 4.3 | 0.00 | 0.00 | 0.00 | 17 | 1012.6 |
| 20260507005006 | 84 | 293 | 0.0 | 5.2 | 0.00 | 0.00 | 0.00 | 17 | 1012.6 |
| 20260507004505 | 84 | 250 | 0.9 | 5.2 | 0.00 | 0.00 | 0.00 | 17 | 1012.5 |
| 20260507004013 | 84 | 271 | 0.0 | 2.6 | 0.00 | 0.00 | 0.00 | 16 | 1012.5 |
| 20260507003507 | 84 | 271 | 0.0 | 3.5 | 0.00 | 0.00 | 0.00 | 17 | 1012.5 |
| 20260507003003 | 84 | 299 | 0.0 | 4.3 | 0.00 | 0.00 | 0.00 | 17 | 1012.5 |
| 20260507002506 | 84 | 281 | 0.9 | 4.3 | 0.00 | 0.00 | 0.00 | 17 | 1012.5 |
| 20260507002007 | 83 | 307 | 0.0 | 4.3 | 0.00 | 0.00 | 0.00 | 17 | 1012.4 |
| 20260507001527 | 83 | 316 | 0.0 | 4.3 | 0.00 | 0.00 | 0.00 | 17 | 1012.4 |
| 20260507001012 | 83 | 318 | 0.0 | 7.8 | 0.00 | 0.00 | 0.00 | 18 | 1012.4 |
| 20260507000505 | 83 | 290 | 0.9 | 7.8 | 0.00 | 0.00 | 0.00 | 18 | 1012.5 |
| 20260507000006 | 83 | 310 | 0.0 | 3.5 | 0.00 | 0.00 | 0.00 | 18 | 1012.4 |
| 20260506235503 | 83 | 274 | 0.0 | 6.1 | 0.00 | 0.00 | 0.00 | 18 | 1012.4 |
| 20260506235004 | 83 | 283 | 0.0 | 10.4 | 0.00 | 0.00 | 0.00 | 17 | 1012.5 |
| 20260506234514 | 83 | 297 | 3.5 | 10.4 | 0.00 | 0.00 | 0.00 | 18 | 1012.5 |
| 20260506234007 | 83 | 280 | 0.0 | 4.3 | 0.00 | 0.00 | 0.00 | 18 | 1012.5 |
| 20260506233504 | 83 | 284 | 0.0 | 4.3 | 0.00 | 0.00 | 0.00 | 18 | 1012.6 |
| 20260506233020 | 83 | 175 | 0.0 | 5.2 | 0.00 | 0.00 | 0.00 | 18 | 1012.5 |
| 20260506232506 | 83 | 279 | 0.9 | 6.1 | 0.00 | 0.00 | 0.00 | 17 | 1012.6 |
| 20260506232006 | 83 | 307 | 1.7 | 6.1 | 0.00 | 0.00 | 0.00 | 18 | 1012.6 |
| 20260506231521 | 84 | 309 | 2.6 | 5.2 | 0.00 | 0.00 | 0.00 | 17 | 1012.6 |
| 20260506231008 | 83 | 280 | 0.0 | 6.1 | 0.00 | 0.00 | 0.00 | 18 | 1012.7 |
| 20260506230504 | 83 | 296 | 0.0 | 6.1 | 0.00 | 0.00 | 0.00 | 18 | 1012.7 |
| 20260506230006 | 83 | 200 | 1.7 | 5.2 | 0.00 | 0.00 | 0.00 | 18 | 1012.8 |
| 20260506225504 | 83 | 297 | 0.9 | 5.2 | 0.00 | 0.00 | 0.00 | 18 | 1012.8 |
| 20260506225006 | 84 | 308 | 0.9 | 4.3 | 0.00 | 0.00 | 0.00 | 17 | 1012.9 |
| 20260506224514 | 84 | 326 | 0.0 | 6.1 | 0.00 | 0.00 | 0.00 | 18 | 1012.9 |
| 20260506224006 | 83 | 318 | 0.9 | 6.1 | 0.00 | 0.00 | 0.00 | 18 | 1013.0 |
| 20260506223506 | 83 | 342 | 0.0 | 6.1 | 0.00 | 0.00 | 0.00 | 18 | 1013.0 |
| 20260506223020 | 83 | 319 | 0.9 | 7.0 | 0.00 | 0.00 | 0.00 | 18 | 1013.1 |
| 20260506222508 | 83 | 307 | 2.6 | 7.0 | 0.00 | 0.00 | 0.00 | 18 | 1013.1 |
| 20260506222007 | 83 | 322 | 1.7 | 5.2 | 0.00 | 0.00 | 0.00 | 18 | 1013.1 |
| 20260506221524 | 83 | 301 | 1.7 | 4.3 | 0.00 | 0.00 | 0.00 | 18 | 1013.2 |
| 20260506221012 | 83 | 309 | 0.9 | 3.5 | 0.00 | 0.00 | 0.00 | 18 | 1013.2 |
| 20260506220507 | 84 | 287 | 0.0 | 3.5 | 0.00 | 0.00 | 0.00 | 17 | 1013.3 |
| 20260506220026 | 83 | 350 | 0.0 | 6.1 | 0.00 | 0.00 | 0.00 | 18 | 1013.4 |
| 20260506215507 | 82 | 350 | 2.6 | 6.1 | 0.00 | 0.00 | 0.00 | 18 | 1013.5 |
| 20260506215004 | 82 | 284 | 0.0 | 4.3 | 0.00 | 0.00 | 0.00 | 18 | 1013.5 |
| 20260506214518 | 82 | 314 | 1.7 | 4.3 | 0.00 | 0.00 | 0.00 | 18 | 1013.7 |
| 20260506214007 | 82 | 285 | 0.0 | 6.1 | 0.00 | 0.00 | 0.00 | 18 | 1013.8 |
| 20260506213503 | 82 | 323 | 1.7 | 6.1 | 0.00 | 0.00 | 0.00 | 19 | 1013.9 |
| 20260506213024 | 82 | 304 | 0.9 | 5.2 | 0.00 | 0.00 | 0.00 | 19 | 1014.0 |
| 20260506212506 | 82 | 278 | 1.7 | 5.2 | 0.00 | 0.00 | 0.00 | 18 | 1014.1 |
| 20260506212007 | 82 | 313 | 0.9 | 5.2 | 0.00 | 0.00 | 0.00 | 18 | 1014.1 |
| 20260506211524 | 82 | 323 | 1.7 | 5.2 | 0.00 | 0.00 | 0.00 | 18 | 1014.2 |
| 20260506211007 | 83 | 345 | 0.9 | 4.3 | 0.00 | 0.00 | 0.00 | 18 | 1014.2 |
| 20260506210504 | 82 | 140 | 0.0 | 4.3 | 0.00 | 0.00 | 0.00 | 18 | 1014.3 |
| 20260506210028 | 82 | 107 | 0.0 | 6.1 | 0.00 | 0.00 | 0.00 | 18 | 1014.4 |
| 20260506205503 | 81 | 6 | 1.7 | 6.1 | 0.00 | 0.00 | 0.00 | 19 | 1014.5 |
| 20260506205006 | 81 | 188 | 0.0 | 7.0 | 0.00 | 0.00 | 0.00 | 19 | 1014.6 |
| 20260506204523 | 81 | 350 | 2.6 | 7.0 | 0.00 | 0.00 | 0.00 | 19 | 1014.7 |
| 20260506204006 | 81 | 284 | 0.9 | 2.6 | 0.00 | 0.00 | 0.00 | 20 | 1014.7 |
| 20260506203513 | 81 | 297 | 0.0 | 3.5 | 0.00 | 0.00 | 0.00 | 20 | 1014.7 |
| 20260506203022 | 80 | 290 | 0.9 | 5.2 | 0.00 | 0.00 | 0.00 | 21 | 1014.7 |
| 20260506202507 | 80 | 290 | 1.7 | 6.1 | 0.00 | 0.00 | 0.00 | 21 | 1014.8 |
| 20260506202012 | 80 | 316 | 3.5 | 5.2 | 0.00 | 0.00 | 0.00 | 21 | 1014.8 |
| 20260506201527 | 80 | 271 | 0.9 | 4.3 | 0.00 | 0.00 | 0.00 | 21 | 1014.9 |
| 20260506201006 | 79 | 349 | 0.0 | 4.3 | 0.00 | 0.00 | 0.00 | 22 | 1015.0 |
| 20260506200517 | 79 | 305 | 0.0 | 5.2 | 0.00 | 0.00 | 0.00 | 22 | 1015.0 |
| 20260506200027 | 79 | 323 | 1.7 | 5.2 | 0.00 | 0.00 | 0.00 | 21 | 1015.1 |
| 20260506195507 | 80 | 4 | 1.7 | 5.2 | 0.00 | 0.00 | 0.00 | 21 | 1015.2 |
| 20260506195007 | 79 | 345 | 1.7 | 4.3 | 0.00 | 0.00 | 0.00 | 22 | 1015.3 |
| 20260506194521 | 78 | 298 | 1.7 | 4.3 | 0.00 | 0.00 | 0.00 | 22 | 1015.3 |
| 20260506194009 | 78 | 179 | 2.6 | 5.2 | 0.00 | 0.00 | 0.00 | 22 | 1015.3 |
| 20260506193508 | 78 | 309 | 0.0 | 5.2 | 0.00 | 0.00 | 0.00 | 23 | 1015.4 |
| 20260506193025 | 78 | 294 | 0.0 | 7.0 | 0.00 | 0.00 | 0.00 | 23 | 1015.5 |
| 20260506192511 | 78 | 14 | 0.9 | 7.8 | 0.00 | 0.00 | 0.00 | 23 | 1015.6 |
| 20260506192012 | 78 | 310 | 3.5 | 7.8 | 0.00 | 0.00 | 0.00 | 22 | 1015.6 |
| 20260506191525 | 78 | 310 | 0.9 | 5.2 | 0.00 | 0.00 | 0.00 | 23 | 1015.6 |
| 20260506191008 | 79 | 351 | 2.6 | 6.1 | 0.00 | 0.00 | 0.00 | 22 | 1015.7 |
| 20260506190510 | 79 | 307 | 1.7 | 6.1 | 0.00 | 0.00 | 0.00 | 23 | 1015.7 |
| 20260506190028 | 79 | 357 | 0.0 | 1.7 | 0.00 | 0.00 | 0.00 | 22 | 1015.8 |
| 20260506185507 | 79 | 356 | 0.0 | 4.3 | 0.00 | 0.00 | 0.00 | 21 | 1015.8 |
| 20260506185008 | 78 | 349 | 0.0 | 5.2 | 0.00 | 0.00 | 0.00 | 24 | 1015.9 |
| 20260506184521 | 77 | 340 | 3.5 | 5.2 | 0.00 | 0.00 | 0.00 | 23 | 1015.9 |
| 20260506184006 | 76 | 307 | 1.7 | 6.1 | 0.00 | 0.00 | 0.00 | 25 | 1016.1 |
| 20260506183511 | 76 | 256 | 0.9 | 6.1 | 0.00 | 0.00 | 0.00 | 26 | 1016.1 |